Вернуться в каталог

SL-12 DEB

АктивенHEO
NORAD 23292·DEBRIS·🇷🇺 Russia

Запущен Dec 24, 1985 с Baikonur Cosmodrome

Loading…

Ближайшие Пролёты (ближайшие 24 часа)

TLE

СвежийSource: Space-Track

Эпоха: Sep 14, 2026, 00:50 UTC

1 23292U 85118P   26257.03540412  .00000036  00000-0  19945-3 0  9992
2 23292  65.3754 273.8610 5493217 284.1884  23.1124  4.52205468544522

Отслеживайте SL-12 DEB в реальном времени с AllMySat

Download on the App Store